Showing default

CTC-0, 62401

Orbit data source: Space-Track

CTC-0, 62401 is an American payload satellite in LEO that was launched on Sat, 21 Dec 2024 UTC via an FALCON 9 launch vehicle from the Air Force Western Test Range (AFWTR). Payload-class satellites include a variety of spacecraft equipped with specific instruments for various scientific and technological missions. These include communications satellites like Starlink; space stations such as the ISS; scientific satellites like the Hubble; Earth observation satellites from companies like Planet Labs, Umbra, and HawkEye 360; GPS; miniature CubeSats for education and research; and military/defense satellites.

Loading next visibility...
Identifier
62401, 2024-247AA
Orbit
LEO
Country
Flag of USUS
Related business
None
Manufacturer
Endurosat
Mission
Operational Commercial Communications
Bus & Motor
CUBESAT 8U, Unknown motor
Mass
9.75 kg wet, 9.75 kg dry
Launch date (UTC)
2024-12-21 (1 year ago)
Launch vehicle
FALCON 9
Launch site
Air Force Western Test Range (AFWTR)
Object type
Payload
Rocket body
Debris
Shape & HBR
Box, 0.3 m
Radar Cross Section
0.154 m², Medium (>0.1 m² and < 1m²)

Expand to show TLE details & history
Last TLE update: 14 hours ago

TLE from 14 hours ago
0 CTC-0
1 62401U 24247AA  26171.25545747  .00014899  00000-0  37754-3 0  9998
2 62401  44.9710 253.0626 0007936 302.4983  57.5137 15.39623178 83697
Epoch: 2026-06-20T06:07Z
TLE epoch observation values (Epoch: 2026-06-20T06:07:51.525Z)
Latitude
-0°
Longitude
-107.37479°
Altitude
444.312 km
Speed
7.649 km/s
True Right ascension
16h 52m 15s
True Declination
0° 00' 00"
Sunlit
Object was in full shadow at epoch
Visualization orbit readout
Latitude
Unknown
Longitude
Unknown
Altitude
Unknown
Speed
Unknown
Apparent Right ascension
Unknown
Apparent Declination
Unknown
Sunlit
N/A
Visualization observer readout
Local Sidereal Time
07:24:41
Azimuth
Unknown
Elevation
Unknown
Doppler factor
Unknown
Orbital elements
Apogee altitude
454.263 km
Perigee altitude
443.427 km
Semi-major axis
6,826.982 km
Eccentricity
0.00079
Inclination
44.971°
RAAN
253.0626°
Arg. of periapsis
302.4983°
True anomaly
57.59045°
Mean anomaly
57.5137°
Eccentric anomaly
57.55207°
Mean motion
3.84769 °/min
Orbital period
93.56 mins
BSTAR
0.00037754
Loading maneuver chart data...
Computing Atmospheric mass density...
Loading historical data...
Loading historical data...
Loading historical data...
Loading historical data...
Loading historical data...
Loading historical data...
Loading historical data...

Documentation

Showing up to 5 results
|